GW3327 Weather Reports


time (UTC)temp
C
wind
direction
speed
KPH
gust
KPH
rain 1hr
cm
rain 24hr
cm
rain mn
cm
humidity
%
barometer
mb
20260509185642 14 224 0.0 4.8 0.00 0.58 0.58 82 1011.2
20260509185137 15 221 1.6 3.2 0.00 0.58 0.58 84 1011.3
20260509184635 13 228 0.0 0.0 0.00 0.58 0.58 86 1011.2
20260509184131 13 228 0.0 3.2 0.00 0.58 0.58 88 1011.3
20260509183628 13 274 1.6 4.8 0.00 0.58 0.58 87 1011.2
20260509183118 13 246 3.2 9.7 0.00 0.58 0.58 88 1011.2
20260509182614 13 194 0.0 3.2 0.00 0.58 0.58 88 1011.1
20260509182111 12 201 0.0 0.0 0.00 0.58 0.58 89 1011.3
20260509181609 12 203 0.0 1.6 0.00 0.58 0.58 89 1011.2
20260509181106 12 217 0.0 0.0 0.00 0.58 0.58 89 1011.1
20260509180603 12 217 0.0 0.0 0.00 0.58 0.58 89 1011.2
20260509180059 12 202 0.0 0.0 0.00 0.58 0.58 91 1011.1
20260509175554 12 230 0.0 3.2 0.00 0.58 0.58 91 1011.1
20260509175052 12 220 3.2 3.2 0.00 0.58 0.58 92 1011.2
20260509174548 11 223 0.0 1.6 0.00 0.58 0.58 93 1011.1
20260509174043 12 222 0.0 4.8 0.00 0.58 0.58 92 1011.3
20260509173538 12 227 0.0 1.6 0.00 0.58 0.58 92 1011.0
20260509173034 12 202 3.2 4.8 0.00 0.58 0.58 94 1010.9
20260509172531 11 159 3.2 9.7 0.00 0.58 0.58 94 1011.0
20260509172027 11 177 4.8 9.7 0.00 0.58 0.58 94 1011.0
20260509171523 11 230 3.2 4.8 0.00 0.58 0.58 95 1011.0
20260509171020 11 189 1.6 4.8 0.18 0.58 0.58 95 1011.0
20260509170515 11 204 0.0 3.2 0.18 0.58 0.58 95 1010.9
20260509170012 11 227 0.0 1.6 0.00 0.56 0.56 95 1011.0
20260509165510 11 229 1.6 4.8 0.00 0.56 0.56 95 1011.0
20260509165006 11 206 3.2 6.4 0.00 0.56 0.56 95 1010.9
20260509164502 11 217 3.2 11.3 0.13 0.56 0.56 95 1011.0
20260509163958 11 143 6.4 9.7 0.13 0.56 0.56 95 1011.0
20260509163456 11 248 3.2 3.2 0.00 0.53 0.53 96 1011.1
20260509162954 11 234 1.6 6.4 0.00 0.53 0.53 96 1011.2
20260509162454 11 230 0.0 3.2 0.00 0.53 0.53 96 1011.2
20260509161949 11 204 3.2 4.8 0.18 0.53 0.53 96 1011.4
20260509161446 11 206 1.6 4.8 0.18 0.53 0.53 96 1011.3
20260509160941 11 231 1.6 4.8 0.00 0.51 0.51 96 1011.3
20260509160437 11 205 0.0 6.4 0.00 0.51 0.51 96 1011.3
20260509155932 11 225 0.0 3.2 0.13 0.51 0.51 97 1011.3
20260509155429 11 223 0.0 0.0 0.00 0.48 0.48 97 1011.3
20260509154926 11 229 0.0 3.2 0.18 0.48 0.48 97 1011.4
20260509154422 11 231 0.0 3.2 0.13 0.46 0.46 96 1011.4
20260509153919 11 214 1.6 3.2 0.13 0.46 0.46 96 1011.4
20260509153416 11 203 1.6 3.2 0.00 0.43 0.43 96 1011.3
20260509152913 11 205 1.6 1.6 0.18 0.43 0.43 96 1011.5
20260509152409 11 205 0.0 0.0 0.00 0.41 0.41 96 1011.3
20260509151906 11 205 0.0 1.6 0.18 0.41 0.41 96 1011.3
20260509151402 11 204 1.6 3.2 0.18 0.41 0.41 96 1011.6
20260509150901 11 203 1.6 4.8 0.00 0.38 0.38 95 1011.3
20260509150358 11 204 1.6 3.2 0.00 0.38 0.38 95 1011.3
20260509145856 11 240 3.2 4.8 0.00 0.38 0.38 95 1011.2
20260509145355 11 217 0.0 3.2 0.00 0.38 0.38 95 1011.4
20260509144852 11 237 0.0 1.6 0.13 0.38 0.38 95 1011.4
20260509144349 11 230 0.0 4.8 0.13 0.38 0.38 95 1011.4
20260509143846 10 193 3.2 4.8 0.00 0.36 0.36 95 1011.6
20260509143344 10 243 0.0 1.6 0.00 0.36 0.36 96 1011.5
20260509142840 10 228 1.6 4.8 0.00 0.36 0.36 96 1011.5
20260509142336 10 218 0.0 4.8 0.18 0.36 0.36 97 1011.5
20260509141832 10 202 0.0 0.0 0.18 0.36 0.36 97 1011.7
20260509141329 10 230 0.0 1.6 0.00 0.33 0.33 97 1011.6
20260509140825 10 231 0.0 0.0 0.13 0.33 0.33 97 1011.6
20260509140323 10 198 0.0 0.0 0.13 0.33 0.33 97 1011.6
20260509135821 10 214 1.6 3.2 0.18 0.30 0.30 97 1011.7
20260509135318 10 237 0.0 3.2 0.18 0.30 0.30 97 1011.6
20260509134815 10 204 0.0 0.0 0.13 0.28 0.28 96 1011.7
20260509134312 10 236 1.6 4.8 0.18 0.25 0.25 96 1011.8
20260509133809 10 203 1.6 4.8 0.18 0.25 0.25 96 1011.8
20260509133305 10 198 1.6 3.2 0.13 0.23 0.23 95 1011.7
20260509132804 10 227 0.0 4.8 0.13 0.23 0.23 95 1011.6
20260509132306 10 202 0.0 1.6 0.00 0.20 0.20 96 1011.6
20260509131759 10 247 1.6 3.2 0.00 0.20 0.20 96 1011.7
20260509131255 10 195 0.0 1.6 0.00 0.20 0.20 96 1011.7
20260509130752 10 188 0.0 1.6 0.18 0.20 0.20 96 1011.8
20260509130248 10 200 0.0 0.0 0.18 0.20 0.20 96 1011.8
20260509125744 10 200 0.0 1.6 0.13 0.18 0.18 96 1012.0
20260509125242 10 200 0.0 3.2 0.13 0.18 0.18 96 1012.0
20260509124738 10 203 0.0 0.0 0.00 0.15 0.15 96 1011.9
20260509124234 10 198 0.0 1.6 0.18 0.15 0.15 96 1012.0
20260509123733 10 198 1.6 3.2 0.18 0.15 0.15 96 1012.1
20260509123230 10 199 0.0 3.2 0.13 0.13 0.13 96 1011.9
20260509122725 10 201 1.6 1.6 0.13 0.13 0.13 95 1011.9
20260509122222 10 231 1.6 3.2 0.00 0.10 0.10 95 1011.9
20260509121719 10 192 0.0 1.6 0.00 0.10 0.10 95 1012.0
20260509121216 10 217 1.6 3.2 0.00 0.10 0.10 95 1011.9
20260509120715 10 214 0.0 0.0 0.00 0.10 0.10 95 1012.0
20260509120212 10 227 0.0 0.0 0.00 0.10 0.10 95 1011.8
20260509115710 10 229 0.0 0.0 0.18 0.10 0.10 95 1012.0
20260509115207 10 221 0.0 0.0 0.18 0.10 0.10 95 1011.9
20260509114705 9 221 0.0 0.0 0.00 0.08 0.08 95 1011.9
20260509114204 9 175 1.6 4.8 0.00 0.08 0.08 94 1012.0
20260509113702 9 199 0.0 0.0 0.00 0.08 0.08 94 1011.9
20260509113158 9 199 0.0 0.0 0.18 0.08 0.08 93 1011.9
20260509112655 9 227 0.0 0.0 0.18 0.08 0.08 93 1012.0
20260509112152 9 216 0.0 0.0 0.00 0.05 0.05 93 1012.3
20260509111649 9 199 1.6 3.2 0.00 0.05 0.05 92 1012.1
20260509111146 9 228 0.0 0.0 0.00 0.05 0.05 92 1011.9
20260509110643 9 229 0.0 1.6 0.00 0.05 0.05 92 1011.9
20260509110140 9 228 0.0 3.2 0.00 0.05 0.05 92 1011.8
20260509105638 9 238 0.0 0.0 0.00 0.05 0.05 92 1012.0
20260509105135 9 223 0.0 0.0 0.00 0.05 0.05 92 1011.9
20260509104632 9 231 0.0 1.6 0.00 0.05 0.05 92 1011.7
20260509104129 9 227 0.0 3.2 0.00 0.05 0.05 92 1011.9
20260509103627 9 190 0.0 1.6 0.00 0.05 0.05 93 1012.0
20260509103125 9 256 1.6 1.6 0.00 0.05 0.05 93 1012.1
20260509102622 9 224 0.0 1.6 0.00 0.05 0.05 92 1012.0
20260509102119 9 190 3.2 3.2 0.00 0.05 0.05 92 1012.0
20260509101615 9 243 0.0 0.0 0.00 0.05 0.05 92 1012.1
20260509101112 9 203 0.0 0.0 0.00 0.05 0.05 91 1012.0
20260509100609 10 203 0.0 3.2 0.13 0.05 0.05 90 1012.3
20260509100107 9 219 0.0 4.8 0.13 0.05 0.05 90 1012.3
20260509095602 9 230 0.0 1.6 0.00 0.03 0.03 90 1012.4
20260509095100 10 211 0.0 0.0 0.00 0.03 0.03 90 1012.0
20260509094556 10 254 1.6 4.8 0.00 0.03 0.03 90 1012.4
20260509094054 10 241 1.6 3.2 0.18 0.03 0.03 89 1012.5
20260509093552 10 249 0.0 9.7 0.18 0.03 0.03 87 1012.0
20260509093049 9 214 3.2 9.7 0.00 0.00 0.00 89 1012.5
20260509092547 9 236 0.0 0.0 0.00 0.00 0.00 90 1012.4
20260509092046 8 221 0.0 0.0 0.00 0.00 0.00 93 1012.4
20260509091543 8 255 0.0 0.0 0.00 0.00 0.00 96 1012.3
20260509091039 7 246 0.0 1.6 0.00 0.00 0.00 96 1012.0
20260509090536 7 254 0.0 1.6 0.00 0.00 0.00 96 1012.1
20260509090034 7 237 0.0 0.0 0.00 0.00 0.00 96 1011.9
20260509085531 7 237 0.0 1.6 0.00 0.00 0.00 96 1012.0
20260509085027 7 231 3.2 3.2 0.00 0.00 0.00 97 1012.0
20260509084524 7 276 0.0 0.0 0.00 0.00 0.00 97 1011.9
20260509084021 7 276 0.0 0.0 0.00 0.00 0.00 97 1011.8
20260509083519 7 276 0.0 1.6 0.00 0.00 0.00 97 1011.4
20260509083015 7 276 0.0 3.2 0.00 0.00 0.00 97 1011.7
20260509082513 7 276 0.0 0.0 0.00 0.00 0.00 97 1011.4
20260509082010 7 276 0.0 0.0 0.00 0.00 0.00 97 1011.6
20260509081507 7 276 0.0 0.0 0.00 0.00 0.00 97 1011.5
20260509081004 7 276 0.0 0.0 0.00 0.00 0.00 97 1011.4
20260509080502 7 276 0.0 0.0 0.00 0.00 0.00 97 1011.4
20260509075959 7 276 0.0 0.0 0.00 0.00 0.00 96 1011.4
20260509075456 7 276 0.0 0.0 0.00 0.00 0.00 96 1011.2
20260509074954 7 276 0.0 0.0 0.00 0.00 0.00 96 1011.3
20260509074451 7 276 0.0 0.0 0.00 0.00 0.00 96 1011.5
20260509073948 7 276 0.0 0.0 0.00 0.00 0.00 96 1011.4
20260509073444 7 276 0.0 0.0 0.00 0.00 0.00 96 1011.1
20260509072940 7 276 0.0 0.0 0.00 0.00 0.00 96 1011.1
20260509072438 7 276 0.0 0.0 0.00 0.00 0.00 97 1011.2
20260509071934 7 276 0.0 0.0 0.00 0.00 0.00 97 1011.4
20260509071431 7 276 0.0 0.0 0.00 0.00 0.00 97 1011.3
20260509070929 7 276 0.0 0.0 0.00 0.00 0.00 97 1011.3
20260509070425 7 276 0.0 0.0 0.00 0.00 0.00 96 1011.3
20260509065915 6 276 0.0 0.0 0.00 0.00 0.00 96 1011.2
20260509065412 7 276 0.0 0.0 0.00 0.00 0.00 96 1011.4
20260509064908 7 276 0.0 0.0 0.00 0.00 0.00 95 1011.4
20260509064406 7 276 0.0 0.0 0.00 0.00 0.00 95 1011.5
20260509063903 7 277 0.0 0.0 0.00 0.00 0.00 95 1011.8
20260509063359 7 276 0.0 0.0 0.00 0.00 0.00 95 1011.8
20260509062856 7 277 1.6 3.2 0.00 0.00 0.00 95 1011.8
20260509062353 7 221 0.0 0.0 0.00 0.00 0.00 95 1012.1
20260509061850 7 220 0.0 0.0 0.00 0.00 0.00 95 1011.9
20260509061349 7 248 0.0 0.0 0.00 0.00 0.00 95 1012.1
20260509060845 7 228 0.0 0.0 0.00 0.00 0.00 95 1012.0
20260509060342 7 354 3.2 3.2 0.00 0.00 0.00 95 1012.1
20260509055837 7 265 0.0 0.0 0.00 0.00 0.00 95 1012.6
20260509055333 7 265 0.0 0.0 0.00 0.00 0.00 95 1012.7
20260509054831 7 265 0.0 0.0 0.00 0.00 0.00 95 1012.7
20260509054327 7 265 0.0 0.0 0.00 0.00 0.00 95 1012.7
20260509053826 7 265 0.0 0.0 0.00 0.00 0.00 95 1012.6
20260509053322 7 265 0.0 0.0 0.00 0.00 0.00 95 1012.8
20260509052821 7 265 0.0 0.0 0.00 0.00 0.00 95 1012.9
20260509052318 8 265 0.0 0.0 0.00 0.00 0.00 95 1012.8
20260509051815 7 265 0.0 0.0 0.00 0.00 0.00 95 1013.1
20260509051314 7 265 0.0 0.0 0.00 0.00 0.00 95 1013.1
20260509050810 7 265 0.0 0.0 0.00 0.00 0.00 95 1013.1
20260509050306 7 265 0.0 0.0 0.00 0.00 0.00 95 1013.1
20260509045803 7 265 0.0 0.0 0.00 0.00 0.00 95 1013.1
20260509045300 7 265 0.0 0.0 0.00 0.00 0.00 95 1013.2
20260509044758 7 265 0.0 0.0 0.00 0.00 0.00 95 1013.1
20260509044255 7 265 0.0 0.0 0.00 0.00 0.00 94 1013.2
20260509043751 8 265 0.0 0.0 0.00 0.00 0.00 94 1013.1
20260509043247 8 265 0.0 0.0 0.00 0.00 0.00 94 1013.4
20260509042743 8 265 0.0 0.0 0.00 0.00 0.00 94 1013.1
20260509042240 8 265 0.0 0.0 0.00 0.00 0.00 94 1013.3
20260509041737 8 265 0.0 0.0 0.00 0.00 0.00 94 1013.3
20260509041234 8 265 0.0 0.0 0.00 0.00 0.00 94 1013.3
20260509040732 8 265 0.0 0.0 0.00 0.00 0.00 94 1013.5
20260509040229 8 265 0.0 0.0 0.00 0.00 0.00 93 1013.5
20260509035726 8 265 0.0 0.0 0.00 0.00 0.00 93 1013.5
20260509035223 8 265 0.0 0.0 0.00 0.00 0.00 93 1013.6
20260509034720 8 265 0.0 0.0 0.00 0.00 0.00 93 1013.6
20260509034217 8 265 0.0 0.0 0.00 0.00 0.00 93 1013.7
20260509033714 8 265 0.0 0.0 0.00 0.00 0.00 93 1013.7
20260509033211 8 265 0.0 0.0 0.00 0.00 0.00 93 1013.4
20260509032708 8 265 0.0 0.0 0.00 0.00 0.00 93 1013.5
20260509032205 8 265 0.0 0.0 0.00 0.00 0.00 94 1013.3
20260509031703 8 265 0.0 0.0 0.00 0.00 0.00 93 1013.3
20260509031200 8 265 0.0 0.0 0.00 0.00 0.00 93 1013.3
20260509030658 8 265 0.0 0.0 0.00 0.00 0.00 93 1013.3
20260509030154 7 265 0.0 0.0 0.00 0.00 0.00 94 1013.2
20260509025650 7 265 0.0 0.0 0.00 0.00 0.00 94 1013.4
20260509025147 7 265 0.0 0.0 0.00 0.00 0.00 94 1013.2
20260509024642 7 265 0.0 0.0 0.00 0.00 0.00 94 1013.3
20260509024138 7 265 0.0 0.0 0.00 0.00 0.00 94 1013.3
20260509023636 7 265 0.0 0.0 0.00 0.00 0.00 95 1013.5
20260509023133 7 265 0.0 0.0 0.00 0.00 0.00 95 1013.3
20260509022629 7 265 0.0 0.0 0.00 0.00 0.00 95 1013.4
20260509022127 7 265 0.0 0.0 0.00 0.00 0.00 95 1013.3
20260509021624 7 266 0.0 0.0 0.00 0.00 0.00 95 1013.3
20260509021121 7 265 0.0 0.0 0.00 0.00 0.00 95 1013.4
20260509020619 6 266 0.0 0.0 0.00 0.00 0.00 94 1013.4
20260509020115 7 266 0.0 0.0 0.00 0.00 0.00 93 1013.2
20260509015615 7 266 0.0 0.0 0.00 0.00 0.00 92 1013.1
20260509015111 7 266 0.0 0.0 0.00 0.00 0.00 92 1013.1
20260509014608 8 265 0.0 0.0 0.00 0.00 0.00 92 1013.1
20260509014104 8 265 0.0 0.0 0.00 0.00 0.00 92 1013.0
20260509013601 8 265 0.0 0.0 0.00 0.00 0.00 92 1013.0
20260509013057 8 265 0.0 0.0 0.00 0.00 0.00 92 1013.2
20260509012554 8 265 0.0 0.0 0.00 0.00 0.00 92 1012.9
20260509012050 8 265 0.0 0.0 0.00 0.00 0.00 91 1013.2
20260509011548 8 265 0.0 0.0 0.00 0.00 0.00 91 1013.2
20260509011045 8 265 0.0 0.0 0.00 0.00 0.00 91 1013.2
20260509010543 8 265 0.0 0.0 0.00 0.00 0.00 91 1013.1
20260509010040 8 265 0.0 0.0 0.00 0.00 0.00 91 1013.1
20260509005538 8 265 0.0 0.0 0.00 0.00 0.00 91 1012.8
20260509005038 8 265 0.0 0.0 0.00 0.00 0.00 91 1012.9
20260509004536 8 265 0.0 0.0 0.00 0.00 0.00 90 1012.8
20260509004032 8 265 0.0 0.0 0.00 0.00 0.00 90 1013.0
20260509003531 8 265 0.0 0.0 0.00 0.00 0.00 89 1012.9
20260509003028 8 265 0.0 0.0 0.00 0.00 0.00 88 1013.0
20260509002525 8 265 0.0 0.0 0.00 0.00 0.00 88 1012.8
20260509002022 9 265 0.0 0.0 0.00 0.00 0.00 87 1012.9
20260509001520 10 265 0.0 0.0 0.00 0.00 0.00 86 1012.8
20260509001015 10 265 0.0 0.0 0.00 0.00 0.00 86 1012.9
20260509000514 10 265 0.0 0.0 0.00 0.00 0.00 82 1012.5
20260509000009 10 265 0.0 0.0 0.00 0.00 0.00 83 1012.8
20260508235508 11 265 0.0 0.0 0.00 0.00 0.00 82 1012.9
20260508235003 11 265 0.0 0.0 0.00 0.00 0.00 82 1012.9
20260508234501 10 265 0.0 0.0 0.00 0.00 0.00 81 1013.0
20260508233958 11 265 0.0 0.0 0.00 0.00 0.00 83 1012.9
20260508233457 11 265 0.0 0.0 0.00 0.00 0.00 81 1013.0
20260508232953 11 265 0.0 0.0 0.00 0.00 0.00 81 1012.9
20260508232450 11 265 0.0 0.0 0.00 0.00 0.00 77 1012.9
20260508231948 12 265 0.0 0.0 0.00 0.00 0.00 74 1012.6
20260508231445 12 237 0.0 0.0 0.00 0.00 0.00 72 1012.8
20260508230941 12 237 0.0 0.0 0.00 0.00 0.00 72 1012.8
20260508230438 12 237 0.0 0.0 0.00 0.00 0.00 69 1012.8
20260508225935 12 237 0.0 0.0 0.00 0.00 0.00 71 1012.8
20260508225432 12 237 0.0 0.0 0.00 0.00 0.00 63 1012.9
20260508224929 12 237 0.0 0.0 0.00 0.00 0.00 64 1012.9
20260508224427 12 237 0.0 0.0 0.00 0.00 0.00 63 1012.7
20260508223924 12 237 0.0 0.0 0.00 0.00 0.00 63 1012.8
20260508223423 12 237 0.0 4.8 0.00 0.00 0.00 62 1012.9
20260508222919 12 237 0.0 3.2 0.00 0.00 0.00 62 1012.8
20260508222416 13 251 0.0 1.6 0.00 0.00 0.00 64 1012.5
20260508221913 14 190 3.2 4.8 0.00 0.00 0.00 59 1012.5
20260508221408 14 239 1.6 4.8 0.00 0.00 0.00 59 1012.7
20260508220905 13 240 1.6 1.6 0.00 0.00 0.00 63 1012.9
20260508220401 13 229 0.0 0.0 0.00 0.00 0.00 61 1012.6
20260508215858 12 230 0.0 0.0 0.00 0.00 0.00 66 1013.0
20260508215355 12 200 0.0 0.0 0.00 0.00 0.00 66 1013.0
20260508214851 12 200 0.0 4.8 0.00 0.00 0.00 65 1013.1
20260508214349 12 225 1.6 3.2 0.00 0.00 0.00 65 1013.3
20260508213845 12 237 1.6 3.2 0.00 0.00 0.00 66 1013.4
20260508213342 12 200 0.0 0.0 0.00 0.00 0.00 69 1013.3
20260508212838 12 217 1.6 1.6 0.00 0.00 0.00 69 1013.3
20260508212335 12 217 0.0 3.2 0.00 0.00 0.00 72 1013.1
20260508211825 11 246 0.0 3.2 0.00 0.00 0.00 72 1013.4
20260508211320 11 226 0.0 1.6 0.00 0.00 0.00 69 1013.5
20260508210819 11 207 0.0 3.2 0.00 0.00 0.00 70 1013.3
20260508210315 11 207 1.6 1.6 0.00 0.00 0.00 70 1013.5
20260508205812 12 225 1.6 3.2 0.00 0.00 0.00 68 1013.5
20260508205308 11 245 0.0 1.6 0.00 0.00 0.00 68 1013.7
20260508204805 12 236 3.2 9.7 0.00 0.00 0.00 66 1013.7
20260508204301 12 206 4.8 6.4 0.00 0.00 0.00 67 1013.7
20260508203758 12 206 1.6 4.8 0.00 0.00 0.00 67 1013.8
20260508203254 12 225 3.2 6.4 0.00 0.00 0.00 64 1013.5
20260508202749 12 240 3.2 4.8 0.00 0.00 0.00 64 1013.7
20260508202247 12 230 4.8 12.9 0.00 0.00 0.00 63 1013.6
20260508201744 12 219 4.8 4.8 0.00 0.00 0.00 62 1013.6
20260508201241 12 242 1.6 11.3 0.00 0.00 0.00 62 1013.5
20260508200737 13 247 4.8 9.7 0.00 0.00 0.00 61 1013.5
20260508200234 12 235 4.8 9.7 0.00 0.00 0.00 62 1013.3
20260508195730 13 181 4.8 16.1 0.00 0.00 0.00 61 1013.8
20260508195226 13 200 3.2 9.7 0.00 0.00 0.00 59 1013.6
20260508194723 13 218 4.8 16.1 0.00 0.00 0.00 58 1014.0
20260508194220 13 209 3.2 9.7 0.00 0.00 0.00 58 1013.7
20260508193717 13 190 9.7 16.1 0.00 0.00 0.00 57 1013.6
20260508193214 13 223 6.4 17.7 0.00 0.00 0.00 57 1013.7
20260508192710 14 220 3.2 11.3 0.00 0.00 0.00 56 1013.7
20260508192208 13 195 4.8 4.8 0.00 0.00 0.00 56 1014.0
20260508191705 12 266 3.2 4.8 0.00 0.00 0.00 61 1013.9
20260508191156 13 281 3.2 6.4 0.00 0.00 0.00 60 1013.9
20260508190654 13 284 8.0 24.1 0.00 0.00 0.00 59 1013.8
20260508190149 13 194 6.4 11.3 0.00 0.00 0.00 57 1014.0